Wetbulb
65.40 64.16 64.49 64.58 64.85 65.17 65.14 64.88 65.23 66.02 66.06 66.04 66.20 66.86 67.30 67.73 68.04 67.73 67.53 67.44 67.17 67.01 67.48 67.37 66.58 66.24 66.10 66.05 65.96 65.40 65.08 64.81 62.46 64.74 65.49 65.94 65.25 65.16 66.09 66.70 66.23 64.74 64.40
65.31 64.10 64.65 64.89 65.05 64.86 65.19 64.83 65.46 64.85 65.25 65.07 65.43 65.18 66.47 66.94 66.90 66.96 66.18 67.08 66.77 66.15 66.33 65.79 65.42 66.37 66.10 65.46 64.22 63.47 63.63 64.13 64.11 62.23 64.57 65.54 64.27 63.75 62.72 61.88 63.13 63.23 63.45
65.05 63.57 64.29 64.56 64.76 65.04 65.06 64.72 64.88 64.37 63.75 64.11 64.20 64.23 63.32 63.72 63.51 63.44 63.87 63.98 64.50 65.13 65.13 64.43 64.51 64.61 63.61 63.49 62.97 62.97 63.67 64.42 64.17 63.43 62.59 64.58 64.40 62.70 58.47 58.66 58.58 58.79 59.82
65.43 63.30 63.17 63.32 64.58 65.44 64.77 64.44 64.24 63.61 62.79 63.38 63.32 63.49 63.25 63.08 62.91 62.61 62.68 62.18 61.79 61.97 62.19 62.76 63.18 62.44 61.98 62.16 62.36 62.18 62.18 62.72 63.20 62.75 62.25 62.61 61.88 60.39 58.76 56.59 55.51 56.25 55.67
65.65 64.60 64.12 64.54 65.18 65.46 64.02 63.60 63.28 61.85 61.35 61.79 62.99 62.89 63.09 63.21 62.82 62.67 61.65 60.73 60.30 59.78 60.14 60.80 61.70 62.13 61.45 60.87 60.19 59.49 60.85 60.87 60.73 60.39 60.62 60.80 61.34 60.82 59.06 57.88 56.17 55.55 55.18
65.63 65.12 65.34 64.85 65.64 64.40 63.58 62.77 60.74 58.46 59.41 61.26 61.04 61.62 61.53 60.78 58.17 59.52 60.55 59.58 59.50 59.20 57.77 56.77 56.31 56.54 55.64 55.36 56.03 57.32 58.35 58.90 59.93 59.67 59.37 57.90 55.77 56.57 57.50 57.50 55.41 55.02 52.43
65.31 65.56 65.09 65.44 64.71 63.89 62.28 60.41 57.69 55.81 56.37 56.77 58.10 59.67 58.16 56.95 55.24 55.00 54.84 53.78 53.55 54.89 55.71 55.29 52.23 51.72 52.31 52.04 53.06 53.48 54.24 54.98 56.41 56.79 51.35 51.43 52.80 53.82 55.63 55.59 56.01 53.25 51.74
65.42 65.14 65.31 64.94 63.89 61.62 59.69 57.01 55.02 53.12 52.48 53.62 55.20 56.77 54.96 53.06 52.19 51.51 51.98 51.64 51.42 52.43 52.20 50.73 51.56 52.46 53.16 52.31 52.11 51.32 51.72 52.29 52.10 52.27 52.29 51.85 51.84 51.97 52.99 54.58 51.72 50.20 51.05
63.87 64.59 65.00 64.38 61.76 58.05 55.75 53.80 53.09 51.91 51.26 52.10 52.77 53.39 52.25 51.10 50.08 49.62 50.84 50.67 50.16 50.28 51.64 52.04 52.31 52.54 52.04 51.46 51.81 50.74 50.68 50.67 51.84 52.14 51.75 51.48 51.69 51.69 52.20 53.30 51.22 50.95 49.14
59.03 62.12 64.77 63.73 59.89 56.17 53.24 52.22 51.10 50.79 50.15 51.54 50.04 50.31 50.63 50.22 48.64 48.51 50.17 50.31 49.36 49.09 50.32 50.80 50.69 49.80 48.65 48.85 50.97 50.97 50.06 50.60 51.23 49.94 49.46 50.73 51.11 50.61 51.52 51.24 50.92 49.65 50.08
55.75 56.25 58.80 58.01 55.97 53.55 51.61 50.73 50.67 49.35 49.98 49.52 49.10 48.79 48.95 49.24 48.67 47.52 48.59 50.52 50.07 49.65 49.61 49.19 48.92 47.77 45.48 45.22 46.58 49.32 49.24 51.24 49.67 46.57 44.52 43.71 43.72 44.71 46.86 48.60 49.71 50.38 47.98
53.08 52.94 53.32 53.18 52.73 51.45 50.17 51.15 51.10 50.10 48.77 48.14 48.72 48.22 48.64 48.99 48.30 47.52 47.73 49.03 50.63 49.65 48.43 47.53 47.46 44.26 43.37 43.79 44.36 44.05 44.45 44.85 43.57 42.95 42.10 40.39 39.68 40.17 41.26 43.09 44.45 48.49 49.61
51.11 50.45 50.61 50.88 50.96 51.59 51.29 50.07 49.67 49.83 48.82 48.21 47.72 47.10 47.68 48.59 48.51 47.14 47.00 47.96 48.52 48.69 49.33 47.96 45.52 42.86 42.47 43.85 44.14 43.00 42.64 42.17 41.58 40.47 40.19 39.82 39.67 39.79 41.87 42.44 44.04 44.71 45.56
50.07 49.90 49.92 49.38 49.24 49.52 49.47 49.65 48.95 48.39 47.86 47.63 47.03 46.67 47.28 47.45 47.03 47.36 47.27 46.40 46.53 46.60 47.24 46.56 44.97 43.90 43.11 42.35 42.71 43.02 43.25 42.10 41.00 40.27 39.70 39.85 40.64 40.89 40.59 40.46 41.76 41.99 43.52
48.06 48.06 47.63 47.25 46.02 44.95 44.44 46.36 46.81 46.53 48.51 47.58 47.46 47.23 45.64 44.33 43.50 43.50 44.26 45.70 45.62 44.28 44.53 44.24 43.72 42.73 42.22 41.93 41.73 41.97 41.81 41.86 41.15 40.18 40.17 39.76 39.71 40.17 39.78 40.46 40.78 41.41 40.62
46.74 46.36 46.36 45.72 44.69 44.14 43.34 40.98 42.11 42.34 41.12 39.82 40.21 43.21 42.61 41.00 39.03 38.85 38.92 39.15 40.01 40.16 42.22 41.78 40.82 41.50 41.79 41.79 42.02 41.62 41.24 41.00 40.29 40.17 39.72 39.21 38.69 39.33 39.37 39.97 40.49 40.10 40.61
44.56 43.88 42.41 42.50 41.99 39.43 39.84 40.20 38.89 39.02 39.45 38.44 37.98 38.17 38.86 38.45 37.51 37.25 37.67 38.06 38.68 40.58 41.45 40.73 41.02 41.53 41.26 41.13 40.94 40.80 40.33 39.81 39.85 39.58 39.46 38.93 39.14 39.23 39.14 38.84 39.47 40.02 40.39
42.91 41.58 40.52 39.55 39.28 38.74 38.86 38.34 38.60 38.85 38.35 38.83 38.17 38.38 37.03 37.09 37.12 37.42 37.74 39.85 43.72 42.07 42.16 41.87 42.35 42.37 41.36 41.54 40.98 41.10 40.16 39.84 39.23 39.26 39.31 39.18 39.16 38.98 38.94 38.30 38.55 39.33 40.14
41.28 39.78 39.34 38.93 38.80 38.45 38.33 37.72 37.54 37.54 38.10 38.30 38.59 38.51 38.18 36.64 36.64 36.94 37.28 43.56 43.04 42.57 42.15 41.89 42.30 41.62 41.13 40.91 40.91 41.03 41.23 40.53 39.65 39.33 39.15 39.40 39.34 39.42 38.82 38.57 38.68 36.82 38.35
41.94 41.92 40.06 39.83 39.65 38.79 38.89 38.71 37.78 37.79 38.26 38.68 38.82 39.50 39.54 39.78 41.58 42.05 41.65 41.58 42.08 42.63 42.50 42.11 41.79 41.50 41.27 41.49 40.95 40.92 41.45 40.41 39.11 39.35 39.38 39.03 38.91 39.16 38.54 38.25 38.72 38.57 39.28
43.49 43.78 42.11 41.39 40.79 40.23 40.42 40.46 39.49 38.69 38.80 38.86 39.54 39.71 37.45 40.84 41.78 42.50 42.10 40.85 41.34 41.83 41.74 41.79 41.93 41.85 41.36 41.49 40.92 41.75 41.62 41.23 39.25 39.33 39.14 38.89 38.82 39.19 38.80 38.80 39.04 39.31 39.44
45.14 44.18 43.71 42.40 42.49 41.53 41.37 42.01 41.90 41.12 40.06 39.80 40.12 40.43 37.35 40.76 41.90 42.34 42.48 41.30 41.51 41.71 41.66 41.28 40.99 41.56 41.85 41.86 41.85 41.96 41.64 41.05 39.62 39.23 38.71 38.12 38.40 39.26 39.17 39.26 39.37 38.97 39.21
47.02 46.43 45.67 45.35 44.55 44.17 43.10 43.29 43.13 43.61 43.18 42.77 42.56 42.32 42.23 42.46 42.43 42.55 42.38 42.24 42.00 41.88 41.73 41.34 41.82 41.66 42.05 41.87 42.16 42.49 41.79 41.54 40.81 40.17 39.06 38.10 38.13 38.57 39.11 39.31 39.07 38.78 38.98
49.16 49.56 49.55 48.61 47.85 46.74 46.29 45.80 45.05 42.98 45.23 45.21 44.34 43.54 43.64 43.66 43.57 42.96 42.31 42.43 42.24 42.29 42.22 42.48 42.93 42.38 42.13 42.63 42.92 42.73 42.25 41.92 40.79 40.14 39.61 38.71 37.65 36.38 38.22 38.76 38.62 37.95 38.79
49.51 49.19 50.11 48.44 47.32 47.48 47.39 46.84 46.64 46.41 46.19 46.07 45.41 44.70 43.76 42.69 42.62 42.87 42.86 42.41 42.67 42.18 42.15 42.39 42.51 42.60 42.86 43.26 42.74 42.41 38.23 31.68 38.79 35.79 38.40 37.45 36.84 37.55 38.16 39.03 39.11 39.46 39.11
47.79 48.37 47.62 48.64 48.84 47.58 47.25 46.86 46.77 46.50 45.96 46.11 45.78 45.28 44.12 42.84 42.65 42.85 42.80 42.44 42.22 42.36 42.64 42.95 42.58 42.31 42.59 43.03 42.91 38.89 32.54 31.17 35.19 31.69 36.58 35.92 35.71 37.07 38.34 39.01 39.43 40.00 39.71
MSLP
1015.20 1015.17 1015.20 1015.21 1015.15 1015.17 1015.18 1015.03 1014.87 1014.54 1014.20 1014.10 1013.78 1013.53 1013.46 1013.47 1013.63 1013.79 1014.09 1014.35 1014.67 1014.85 1014.95 1015.10 1015.37 1015.52 1015.82 1016.21 1016.43 1016.64 1016.86 1016.97 1017.16 1017.08 1017.06 1016.85 1016.65 1016.46 1016.45 1016.54 1016.73 1016.56 1016.93
1015.24 1015.15 1015.13 1015.27 1015.38 1015.39 1015.37 1015.43 1015.15 1014.94 1014.64 1014.62 1014.37 1014.04 1013.81 1013.74 1013.85 1014.06 1014.22 1014.41 1014.64 1014.80 1014.94 1015.13 1015.33 1015.75 1015.79 1016.08 1016.37 1016.58 1016.61 1016.79 1016.98 1017.09 1017.12 1016.98 1017.01 1017.13 1017.10 1017.12 1017.29 1017.31 1017.58
1014.92 1015.05 1015.34 1015.43 1015.51 1015.67 1015.71 1015.77 1015.51 1015.31 1015.23 1015.15 1014.99 1014.85 1014.64 1014.56 1014.54 1014.60 1014.73 1014.98 1015.10 1015.19 1015.33 1015.50 1015.43 1015.69 1015.99 1016.26 1016.28 1016.67 1016.89 1016.89 1016.87 1017.03 1017.20 1017.06 1017.25 1017.60 1017.69 1017.79 1017.95 1017.92 1017.96
1014.81 1015.15 1015.23 1015.50 1015.71 1015.95 1016.10 1016.12 1015.97 1015.91 1015.88 1015.78 1015.68 1015.69 1015.60 1015.52 1015.54 1015.55 1015.67 1015.79 1015.79 1015.86 1015.91 1016.03 1016.22 1016.34 1016.63 1016.77 1016.97 1017.00 1017.25 1017.07 1017.12 1017.15 1017.27 1017.32 1017.42 1017.90 1017.98 1018.16 1018.54 1018.70 1018.83
1014.76 1015.17 1015.16 1015.31 1015.79 1016.10 1016.31 1016.46 1016.56 1016.56 1016.52 1016.46 1016.37 1016.43 1016.38 1016.32 1016.41 1016.32 1016.41 1016.58 1016.70 1016.78 1016.89 1016.88 1017.05 1017.25 1017.45 1017.52 1017.65 1017.72 1017.62 1017.60 1017.66 1017.68 1017.73 1017.74 1017.83 1018.16 1018.18 1018.38 1018.96 1019.24 1019.74
1014.70 1014.97 1015.13 1015.45 1015.74 1016.02 1016.40 1016.84 1017.19 1017.39 1017.28 1017.12 1017.14 1017.25 1017.26 1017.38 1017.34 1017.17 1017.09 1017.31 1017.57 1017.68 1017.94 1018.06 1018.07 1018.18 1018.34 1018.36 1018.44 1018.38 1018.21 1018.02 1018.05 1018.16 1018.35 1018.67 1018.97 1018.92 1018.82 1018.89 1019.32 1019.49 1020.06
1014.79 1015.00 1015.05 1015.61 1015.84 1016.23 1016.67 1017.13 1017.68 1017.99 1017.99 1017.95 1017.86 1017.83 1018.02 1018.25 1018.14 1018.05 1017.97 1018.18 1018.37 1018.57 1018.66 1018.72 1018.74 1018.91 1018.94 1019.16 1019.25 1019.15 1019.02 1018.78 1018.73 1018.75 1019.46 1019.67 1019.79 1019.76 1019.41 1019.35 1019.60 1020.07 1020.69
1014.73 1014.58 1014.75 1015.19 1015.70 1016.32 1016.99 1017.57 1017.99 1018.34 1018.67 1018.76 1018.75 1018.79 1018.88 1019.13 1018.82 1018.77 1018.92 1019.15 1019.37 1019.56 1019.58 1019.57 1019.55 1019.67 1019.79 1019.80 1019.87 1019.85 1019.97 1019.90 1019.90 1019.90 1020.03 1020.29 1020.21 1020.01 1019.83 1019.78 1020.29 1020.78 1021.26
1014.46 1014.44 1014.60 1014.97 1015.58 1016.14 1017.11 1017.76 1018.36 1018.68 1019.07 1019.19 1019.28 1019.43 1019.64 1019.94 1019.73 1019.65 1019.57 1019.93 1020.22 1020.40 1020.49 1020.48 1020.32 1020.38 1020.43 1020.46 1020.41 1020.63 1020.77 1020.71 1020.76 1020.69 1020.64 1020.64 1020.59 1020.38 1020.29 1020.25 1020.59 1020.80 1021.30
1014.84 1014.65 1014.76 1015.14 1015.62 1015.99 1016.98 1017.80 1018.43 1018.95 1019.40 1019.63 1019.79 1020.00 1020.26 1020.39 1020.42 1020.30 1020.31 1020.45 1020.88 1021.27 1021.32 1021.35 1021.14 1021.21 1021.23 1021.14 1021.16 1021.21 1021.24 1021.42 1021.21 1021.20 1021.28 1021.16 1021.26 1021.28 1021.13 1021.14 1021.29 1021.25 1021.41
1015.37 1015.28 1015.26 1015.96 1016.47 1016.86 1017.68 1018.29 1018.71 1019.33 1019.91 1020.31 1020.42 1020.77 1020.81 1020.84 1020.98 1020.87 1020.94 1021.02 1021.24 1021.72 1021.90 1022.10 1022.00 1021.83 1021.85 1021.70 1021.59 1021.77 1021.99 1021.95 1021.97 1021.95 1021.99 1021.99 1022.03 1022.06 1022.08 1022.12 1022.13 1022.05 1022.07
1016.45 1016.54 1016.61 1016.67 1017.18 1017.60 1018.13 1018.93 1019.33 1019.55 1020.03 1020.74 1021.13 1021.48 1021.67 1021.72 1021.66 1021.71 1021.52 1021.57 1021.86 1022.10 1022.67 1022.81 1022.91 1022.73 1022.68 1022.42 1022.30 1022.38 1022.38 1022.33 1022.47 1022.62 1022.69 1023.00 1023.08 1023.05 1022.95 1022.86 1022.80 1022.56 1022.57
1017.01 1017.43 1017.60 1017.61 1018.03 1018.43 1019.06 1019.57 1020.01 1020.07 1020.32 1020.69 1021.15 1021.62 1022.12 1022.28 1022.33 1022.35 1022.47 1022.54 1022.69 1022.84 1023.00 1023.16 1023.24 1023.21 1023.09 1023.08 1023.22 1023.12 1023.01 1023.12 1023.30 1023.37 1023.65 1023.92 1024.10 1024.03 1023.62 1023.33 1023.16 1023.19 1023.16
1017.58 1017.91 1018.16 1018.43 1018.79 1019.13 1019.63 1020.02 1020.40 1020.53 1020.82 1021.13 1021.61 1021.78 1022.58 1022.81 1022.96 1022.97 1023.16 1023.46 1023.50 1023.54 1023.42 1023.48 1023.69 1023.71 1023.77 1023.96 1023.88 1023.82 1023.80 1023.93 1024.09 1024.25 1024.42 1024.54 1024.36 1024.11 1023.99 1023.96 1023.64 1023.56 1023.41
1017.91 1018.38 1018.69 1019.15 1019.49 1019.88 1020.49 1020.89 1021.13 1021.27 1021.32 1021.54 1021.89 1022.16 1022.62 1023.26 1023.67 1023.61 1023.64 1023.87 1023.96 1024.15 1023.95 1024.03 1024.28 1024.30 1024.47 1024.60 1024.71 1024.68 1024.64 1024.57 1024.61 1024.87 1024.82 1024.78 1024.68 1024.54 1024.53 1024.45 1024.26 1024.05 1023.91
1018.64 1018.96 1019.41 1019.86 1020.35 1020.75 1021.09 1021.63 1021.87 1021.92 1022.02 1022.17 1022.36 1022.41 1022.88 1023.22 1023.57 1023.81 1023.91 1024.18 1024.33 1024.16 1024.32 1024.50 1024.74 1024.86 1024.90 1024.99 1024.98 1025.15 1025.25 1025.21 1025.26 1025.29 1025.29 1025.29 1025.22 1025.08 1024.93 1024.83 1024.72 1024.57 1024.35
1019.17 1019.63 1020.02 1020.51 1020.57 1021.22 1021.58 1021.81 1022.26 1022.99 1022.93 1023.11 1023.44 1023.56 1023.37 1023.90 1023.93 1023.90 1024.05 1024.27 1024.25 1024.21 1024.54 1024.80 1025.03 1025.11 1025.20 1025.27 1025.31 1025.37 1025.51 1025.68 1025.68 1025.67 1025.66 1025.66 1025.56 1025.44 1025.26 1025.11 1024.98 1024.79 1024.63
1019.57 1020.07 1020.48 1020.97 1021.41 1021.90 1021.88 1022.25 1022.70 1023.03 1023.06 1023.68 1024.17 1024.35 1024.15 1024.23 1024.29 1024.31 1024.37 1024.13 1024.60 1024.55 1024.76 1024.81 1025.00 1025.15 1025.33 1025.40 1025.50 1025.58 1025.71 1025.77 1025.87 1025.92 1025.91 1025.88 1025.80 1025.67 1025.50 1025.44 1025.33 1025.21 1025.02
1020.30 1020.59 1021.01 1021.48 1021.90 1022.19 1022.35 1022.58 1022.92 1023.20 1023.45 1023.79 1024.54 1024.78 1024.72 1024.84 1024.72 1024.60 1024.36 1024.15 1024.37 1024.62 1024.70 1024.78 1024.95 1025.18 1025.37 1025.52 1025.58 1025.66 1025.71 1025.79 1025.93 1025.99 1026.03 1026.01 1025.98 1025.88 1025.78 1025.73 1025.55 1025.59 1025.40
1020.72 1021.08 1021.49 1021.85 1022.14 1022.31 1022.66 1022.94 1023.13 1023.50 1023.92 1024.12 1024.49 1024.42 1024.54 1024.90 1024.68 1024.50 1024.32 1024.21 1024.28 1024.42 1024.51 1024.63 1024.83 1025.02 1025.22 1025.37 1025.47 1025.52 1025.56 1025.76 1025.95 1025.98 1026.06 1026.15 1026.20 1026.18 1026.01 1025.91 1025.72 1025.55 1025.46
1020.93 1021.11 1021.52 1021.83 1022.19 1022.64 1022.78 1023.06 1023.08 1023.37 1023.92 1024.22 1024.35 1024.32 1024.16 1024.22 1024.16 1024.26 1024.17 1024.15 1024.12 1024.16 1024.30 1024.43 1024.54 1024.70 1024.90 1025.08 1025.20 1025.21 1025.30 1025.47 1025.69 1025.85 1025.98 1026.15 1026.25 1026.16 1026.21 1026.05 1025.83 1025.67 1025.52
1020.68 1020.95 1021.33 1021.64 1022.06 1022.49 1022.60 1022.88 1023.06 1023.42 1023.56 1023.72 1023.82 1023.97 1023.73 1023.88 1023.80 1023.92 1023.92 1023.87 1023.81 1023.89 1024.01 1024.14 1024.19 1024.34 1024.47 1024.60 1024.71 1024.86 1024.96 1025.08 1025.31 1025.55 1025.78 1025.98 1026.09 1026.12 1026.12 1025.91 1025.73 1025.63 1025.48
1020.63 1020.94 1021.14 1021.35 1021.55 1021.86 1022.28 1022.40 1022.48 1022.78 1023.00 1022.97 1023.08 1023.31 1023.18 1023.18 1023.29 1023.37 1023.35 1023.34 1023.47 1023.59 1023.79 1023.99 1023.93 1024.02 1024.19 1024.38 1024.52 1024.56 1024.58 1024.61 1024.84 1025.24 1025.42 1025.68 1025.85 1025.90 1025.93 1025.75 1025.63 1025.50 1025.36
1020.42 1020.61 1020.59 1020.60 1020.73 1020.94 1021.22 1021.41 1021.67 1021.87 1021.95 1022.10 1022.27 1022.47 1022.42 1022.53 1022.56 1022.61 1022.75 1022.87 1023.10 1023.25 1023.44 1023.51 1023.48 1023.50 1023.77 1024.02 1024.16 1024.28 1024.36 1024.44 1024.64 1024.88 1025.16 1025.33 1025.46 1025.67 1025.69 1025.62 1025.50 1025.42 1025.27
1019.80 1019.86 1019.72 1019.75 1019.92 1020.11 1020.29 1020.62 1020.87 1020.88 1021.03 1021.21 1021.24 1021.37 1021.51 1021.75 1021.88 1021.92 1022.07 1022.36 1022.64 1022.90 1022.95 1023.04 1023.13 1023.22 1023.37 1023.45 1023.59 1023.77 1024.01 1024.31 1024.37 1024.71 1025.02 1025.15 1025.19 1025.36 1025.37 1025.34 1025.33 1025.22 1025.13
1019.52 1019.41 1019.39 1019.28 1019.27 1019.40 1019.59 1019.83 1020.05 1020.31 1020.41 1020.49 1020.51 1020.51 1020.60 1020.81 1020.90 1021.07 1021.28 1021.57 1021.95 1022.16 1022.30 1022.44 1022.55 1022.80 1022.95 1023.09 1023.18 1023.41 1023.86 1024.16 1024.33 1024.59 1024.72 1024.86 1024.97 1025.05 1025.08 1025.06 1025.04 1024.91 1024.81
Wind_Speed
3 3 3 1 3 3 3 4 5 5 7 7 5 3 1 3 3 4 3 3 4 4 5 7 6 6 5 3 2 2 2 2 2 1 1 2 4 5 6 8 7 8 6
4 4 3 2 2 4 4 5 5 7 8 8 7 7 6 5 4 4 3 3 3 4 5 6 6 3 5 5 3 3 2 2 3 3 1 2 4 4 5 7 5 6 6
5 4 3 1 3 3 4 4 6 7 8 8 8 9 8 8 8 7 7 6 6 5 5 4 3 4 4 3 3 4 2 1 1 1 1 1 3 1 5 5 6 7 7
4 4 4 4 3 3 4 5 7 7 8 9 8 8 9 8 8 8 8 8 8 8 8 7 6 5 4 4 3 2 1 2 1 1 1 1 3 3 2 3 3 4 5
5 5 5 4 4 5 6 6 7 7 7 8 9 9 8 8 6 8 8 8 8 9 9 10 9 13 15 11 3 4 3 2 2 1 1 1 1 1 1 2 2 3 6
6 6 3 4 7 7 7 7 7 7 7 7 8 9 9 7 10 12 9 8 9 9 8 8 8 12 14 17 16 16 7 1 1 1 2 3 5 4 4 2 3 2 3
5 4 5 6 7 8 8 7 7 7 6 6 7 7 9 8 13 15 16 8 8 8 7 6 8 8 10 9 14 15 18 21 15 5 5 4 3 4 3 3 4 4 3
6 6 9 9 9 8 8 8 6 6 6 5 6 6 8 7 13 15 15 9 9 9 9 8 8 8 8 8 10 13 12 12 10 8 9 6 4 4 4 3 5 7 3
1 5 8 11 10 10 9 8 6 7 6 6 6 7 8 7 10 11 10 9 10 11 9 8 8 9 11 10 10 11 10 10 12 15 14 14 16 16 10 3 4 2 2
3 2 6 9 10 11 10 9 5 6 6 6 8 7 8 7 8 9 8 8 10 8 9 10 16 12 13 11 9 7 9 6 7 9 8 10 11 11 16 10 6 5 3
5 5 7 7 8 9 8 7 8 9 8 7 9 7 8 8 7 9 8 7 7 8 8 6 6 12 12 13 10 7 4 4 8 6 6 6 7 7 6 6 6 4 3
6 8 7 9 8 8 11 8 7 8 10 8 8 7 6 7 10 11 13 11 9 8 7 4 5 13 13 13 9 11 11 8 6 6 7 7 6 6 6 6 7 6 5
8 8 8 10 9 9 8 8 6 6 6 7 6 6 5 4 6 12 13 13 12 8 4 8 11 11 12 11 14 13 10 7 7 8 6 5 4 4 5 3 4 5 6
9 8 8 9 8 8 7 5 4 4 5 6 5 6 4 4 4 4 5 5 9 6 8 8 11 12 13 9 9 9 7 6 6 5 5 3 3 4 6 5 4 4 4
8 7 8 7 8 7 7 4 4 3 4 6 5 6 6 6 3 4 4 5 4 5 6 4 4 5 6 6 5 6 5 5 5 4 4 5 5 5 5 4 4 4 4
8 7 6 6 6 6 7 7 16 11 11 10 8 6 4 8 7 7 8 7 7 4 4 4 3 3 4 3 4 4 4 5 4 3 4 4 4 4 4 4 3 3 3
8 7 6 6 6 5 5 6 8 7 14 11 9 8 8 7 7 7 8 9 6 6 4 3 3 2 3 3 3 3 2 2 2 3 3 3 3 3 4 4 4 3 3
8 11 6 5 5 5 5 5 5 5 6 4 7 4 6 6 5 6 8 6 3 4 2 3 2 3 3 2 2 2 2 2 2 2 3 3 3 3 3 3 4 4 3
6 6 6 5 5 5 5 4 4 4 4 5 3 3 3 3 4 6 3 2 3 3 3 2 3 3 3 3 3 2 2 2 2 2 2 2 2 2 2 2 3 3 2
6 10 6 4 4 4 4 4 4 4 3 3 3 3 2 1 1 0 0 2 3 3 3 4 4 3 3 3 3 2 2 3 3 2 2 1 1 1 1 2 2 3 2
4 5 6 4 3 3 3 3 3 4 4 4 4 4 5 3 3 2 2 3 3 4 4 4 4 5 4 4 4 3 2 3 4 3 2 2 1 1 1 1 2 2 0
4 5 5 5 4 4 4 4 4 4 5 5 4 4 8 4 4 4 4 4 4 4 3 3 4 5 5 6 5 4 4 4 5 4 4 2 1 1 2 2 1 0 0
4 4 5 5 5 6 6 7 6 6 6 6 6 6 5 6 6 6 5 5 5 4 4 4 4 4 5 5 4 5 5 5 5 5 5 4 2 2 2 2 1 1 1
5 6 7 7 7 8 8 8 8 9 8 8 7 7 6 6 7 6 6 5 5 5 4 5 5 5 5 5 5 4 5 4 4 6 6 4 3 4 3 2 2 2 3
4 4 4 4 6 7 6 7 7 8 8 8 7 7 6 6 7 8 7 6 6 6 7 6 6 7 10 10 7 6 5 6 6 6 4 5 5 6 4 3 3 3 3
2 3 2 3 4 5 5 5 5 5 6 6 7 7 7 7 8 7 7 7 7 8 9 7 8 12 12 9 10 8 6 6 7 7 5 4 5 5 4 5 5 4 3
Wind_Direction
200 177 144 99 46 32 13 6 6 11 18 11 14 22 206 171 167 159 182 205 216 208 196 177 160 150 150 138 129 123 174 168 195 277 349 352 38 53 63 69 48 56 38
187 172 144 104 43 44 26 15 25 30 34 23 14 26 36 71 84 102 121 143 176 179 146 148 137 160 163 141 136 145 164 194 198 228 349 54 66 23 46 56 46 56 55
172 159 160 138 87 68 50 33 41 42 42 40 32 32 44 52 57 58 64 64 61 71 95 101 104 103 97 111 123 125 119 143 120 131 76 22 60 64 59 45 53 56 55
172 176 179 191 156 118 80 64 58 49 54 53 44 47 48 57 65 68 68 64 60 57 58 62 68 76 73 70 70 75 72 86 95 116 67 57 99 56 68 90 58 43 63
182 194 207 172 145 122 98 80 71 62 60 57 57 45 44 54 59 77 71 67 70 68 58 59 63 72 67 59 47 28 4 28 39 38 50 19 63 170 163 118 97 93 46
197 197 197 149 143 126 111 97 74 54 46 56 53 56 49 51 49 63 75 74 68 72 70 61 56 64 65 68 66 60 51 55 50 62 39 28 28 8 3 49 120 121 97
200 191 141 137 131 124 114 96 81 68 60 51 52 60 63 60 62 66 69 64 66 59 59 64 69 65 65 69 64 61 58 58 57 72 86 43 50 2 344 17 79 65 49
205 173 151 147 138 116 110 103 95 88 74 67 57 57 72 60 78 81 78 74 72 67 65 74 79 70 62 76 78 68 57 55 56 67 70 60 50 11 38 75 104 107 95
153 177 168 156 143 129 125 119 109 105 88 79 61 62 75 70 71 76 85 79 77 70 66 62 76 74 67 63 83 83 76 75 68 65 65 57 48 43 45 83 69 78 96
13 318 161 158 149 133 132 128 107 106 102 97 81 64 64 79 64 70 82 95 86 81 72 64 65 71 58 56 75 79 82 62 69 59 50 46 43 43 48 46 32 66 76
32 27 90 101 108 110 103 106 111 107 97 81 86 64 59 50 44 63 56 92 100 92 80 65 60 66 61 57 59 60 58 78 66 57 52 44 38 36 28 31 30 45 52
55 53 68 91 97 97 106 104 102 109 101 91 88 73 52 51 58 57 69 76 92 99 89 74 61 65 60 51 54 57 57 64 63 60 59 44 32 25 12 23 27 39 47
84 80 77 80 84 86 91 88 98 96 109 111 109 100 81 67 71 66 72 76 78 88 95 92 78 62 61 60 55 58 62 70 74 69 58 46 27 359 0 16 34 45 56
100 97 89 85 82 84 79 81 98 103 103 109 112 105 100 86 77 74 77 72 73 72 81 76 79 77 69 66 59 56 65 64 70 70 63 46 21 26 32 12 25 19 48
93 93 88 86 90 85 71 57 82 45 123 129 127 124 129 113 102 85 113 110 106 103 94 74 69 64 67 67 66 59 61 62 67 59 60 49 36 29 33 15 31 35 55
101 94 98 105 104 103 104 86 47 58 73 79 84 119 90 103 123 116 105 101 110 112 77 98 86 80 86 77 74 70 50 51 54 72 67 51 39 29 34 34 41 40 38
108 106 98 103 111 111 111 115 106 57 61 56 73 83 85 127 115 114 114 100 100 85 98 103 114 120 111 100 83 77 79 56 84 75 65 50 42 44 32 32 24 26 29
100 102 110 111 107 107 103 107 119 128 120 95 40 82 104 116 103 112 131 97 84 71 118 148 163 149 140 130 122 125 124 124 99 80 73 53 43 38 41 34 26 9 360
110 108 107 103 100 105 107 104 108 104 105 109 101 48 23 41 73 79 129 133 159 174 158 156 166 163 160 159 156 165 195 185 159 144 98 65 36 12 50 20 356 355 344
98 115 111 116 114 112 118 124 117 110 119 144 169 176 170 242 229 267 128 176 181 197 183 180 185 188 186 182 180 184 180 180 179 177 145 108 38 12 15 347 342 340 350
125 128 139 128 142 154 157 168 153 149 168 192 209 208 196 219 201 217 218 203 192 191 192 200 201 205 204 199 203 203 212 207 197 194 177 175 200 258 258 274 313 318 185
161 169 177 191 181 187 203 205 192 197 197 198 209 221 198 221 214 226 234 220 200 196 195 195 202 208 205 202 201 208 213 213 198 193 188 182 196 246 249 274 315 76 325
192 203 214 217 206 199 206 214 209 212 218 216 214 224 209 221 232 234 234 219 203 202 198 207 209 200 199 205 216 222 226 227 214 191 190 189 205 220 233 265 255 259 299
204 227 230 229 220 214 214 213 213 214 217 223 215 216 218 226 236 235 231 216 208 212 209 215 215 217 201 209 215 222 229 226 189 186 183 196 208 196 216 233 219 263 295
195 230 231 214 211 213 213 212 217 216 216 222 224 215 211 212 228 232 220 212 213 211 216 219 224 228 222 215 215 216 190 167 179 166 182 195 200 201 209 217 232 251 266
336 346 309 277 233 212 207 208 221 214 223 229 230 222 213 216 225 227 219 208 214 219 220 222 223 221 220 221 218 205 181 185 187 188 182 190 201 204 205 220 244 242 248